Location: Saint-Hippolyte
(43.6394°N, 4.7559°E)
Time: 15:43:05
(UTC+00:00)

Cosmos 2058 Rocket - Pass Details

Date: 24 October 2020
Orbit: 610 x 639 km, 82.5° (Epoch: 23 November)

Event Time Altitude Azimuth Distance (km) Brightness Sun altitude
Rises 18:18:34 0° 191° (S) 2,906 6.6 -18.0°
Reaches altitude 10° 18:20:47 10° 192° (SSW) 2,008 5.8 -18.4°
Maximum altitude 18:25:15 76° 279° (W) 659 3.2 -19.2°
Drops below altitude 10° 18:29:46 10° 5° (N) 2,037 5.7 -20.0°
Sets 18:32:02 0° 7° (N) 2,952 6.5 -20.4°
